Погода в Красном Яре

Россия / Астраханская область     46°32′03″N   48°20′56″E
темп.,
°C
ветер,
м/с
пор.,
м/с
влажн.,
%
обл.,
%
осадки,
мм/ч
давл.,
гПа
погр.,
м
8 мая, сб
сб801:00+14ююз49555 0.0 1018179
04:00+13юз37602 0.0 1018117
07:00+15юз366014 0.0 1018199
10:00+22ююз45395 0.0 10181022
13:00+25ююз44300 0.0 10172128
16:00+25ю64295 0.0 10162275
19:00+21ю673199 0.0 1016622
22:00+16ююв4848100 0.0 1016197
9 мая, вс
вс901:00+14ююв365597 0.0 1016117
04:00+13юв48635 0.0 1014134
07:00+17юв5126220 0.0 1013517
10:00+23ююв91230100 0.0 10121240
13:00+24ююв91235100 0.0 10111569
16:00+23ююв91343100 0.0 10101440
19:00+21ююв61252100 0.0 10101135
22:00+17юв376784 0.0 1010177
10 мая, пн
пн1001:00+17ю4967100 0.0 1009284
04:00+11з91184100 0.4 1010451
07:00+9зсз81285100 4.3 1013704
10:00+9зсз81174100 4.4 1014786
13:00+10з71078100 0.6 10161010
16:00+10з6872100 3.7 10171177
19:00+13з26545 0.1 10171038
22:00+9ю01662 0.1 101911
11 мая, вт
вт1101:00+8ююв22680 0.0 101911
04:00+8в11690 0.0 102013
07:00+10з1163100 0.0 102177
10:00+15св3244100 0.0 1022965
13:00+16всв544297 0.0 10211150
16:00+17св65395 0.0 10211237
19:00+15ссв334622 0.0 1020713
22:00+11ссв35632 0.0 1020119
12 мая, ср
ср1201:00+10с347811 0.0 102074
04:00+10с33850 0.0 101955
07:00+12с34770 0.0 1020210
10:00+18ссв33560 0.0 1019693
13:00+22всв34448 0.0 10181535
16:00+24юв654022 0.0 10171835
19:00+20юв56550 0.0 1018870
22:00+16юв35760 0.1 1018119